"2010-08-28 00:00:00",109741,6.53,172.3,3.824,0.289,24.22,111.0687,27.64,28.53,14.65,0,111.3,13.1,28.49,134.3
"2010-08-28 00:00:30",109742,6.158,173.3,2.618,0.305,24.15,111.0531,27.6,28.53,14.88,0,111.3,13.1,28.45,135.3
"2010-08-28 00:01:00",109743,5.678,166.3,3.496,0.127,24.22,111.0449,27.58,28.5,14.75,0,111.3,13.1,28.43,128.3
"2010-08-28 00:01:30",109744,5.472,165.7,4.335,0.205,24.19,111.044,27.58,28.5,15.21,0,111.3,13.1,28.43,127.7
"2010-08-28 00:02:00",109745,5.335,173,4.794,0.293,24.14,111.0444,27.58,28.51,15.02,0,111.3,13.1,28.43,135.0
"2010-08-28 00:02:30",109746,5.661,178.3,1.512,0.327,24.16,111.0484,27.59,28.5,15.09,0,111.3,13.1,28.44,140.3
"2010-08-28 00:03:00",109747,4.968,172.9,3.575,0.318,24.19,111.0547,27.61,28.5,15.08,0,111.3,13.1,28.45,134.9
"2010-08-28 00:03:30",109748,5.625,177.3,4.747,0.684,24.34,111.0596,27.62,28.51,15.11,0,111.3,13.1,28.47,139.3
"2010-08-28 00:04:00",109749,5.096,172.9,4.621,0.333,24.45,111.0837,27.68,28.52,14.81,0,111.3,13.1,28.53,134.9
"2010-08-28 00:04:30",109750,6.162,165.1,4.647,0.89,24.23,111.0872,27.69,28.53,15.18,0,111.3,13.1,28.54,127.1
"2010-08-28 00:05:00",109751,5.906,157.1,5.483,0.318,24.25,111.0626,27.63,28.51,15.41,0,111.3,13.1,28.47,119.1
"2010-08-28 00:05:30",109752,6.338,156.8,1.179,0.134,24.15,111.0442,27.58,28.48,15.17,0,111.3,13.09,28.43,118.8
"2010-08-28 00:06:00",109753,6.46,160.3,2.468,0.249,24.12,111.0287,27.54,28.46,15.16,0,111.3,13.09,28.39,122.3
"2010-08-28 00:06:30",109754,6.503,161.7,1.792,0.214,24.13,111.0045,27.48,28.41,15.16,0,111.3,13.09,28.32,123.7
"2010-08-28 00:07:00",109755,6.449,164.2,2.114,0.214,24.13,111.0023,27.47,28.38,15.05,0,111.3,13.09,28.32,126.2
"2010-08-28 00:07:30",109756,6.414,165.5,2.065,0.169,24.15,110.99,27.44,28.36,15.05,0,111.3,13.09,28.29,127.5
"2010-08-28 00:08:00",109757,6.535,166.3,1.606,0.221,24.12,110.9811,27.42,28.34,15.15,0,111.3,13.09,28.26,128.3
"2010-08-28 00:08:30",109758,6.857,169.5,1.825,0.259,24.12,110.978,27.41,28.34,15.3,0,111.3,13.09,28.26,131.5
"2010-08-28 00:09:00",109759,7.129,169.8,0.929,0.127,24.05,110.9707,27.39,28.31,15.49,0,111.3,13.09,28.24,131.8
"2010-08-28 00:09:30",109760,7.459,170.2,2.01,0.233,24.07,110.9714,27.39,28.29,15.46,0,111.3,13.09,28.24,132.2
"2010-08-28 00:10:00",109761,7.652,169.7,2.282,0.157,24.07,110.9669,27.38,28.26,15.56,0,111.3,13.09,28.23,131.7
"2010-08-28 00:10:30",109762,7.744,179.2,3.048,0.404,24.05,110.9569,27.35,28.26,15.4,0,111.3,13.09,28.20,141.2
"2010-08-28 00:11:00",109763,7.216,181.6,6.066,0.346,24.1,110.9619,27.37,28.25,15.35,0,111.3,13.1,28.21,143.6
"2010-08-28 00:11:30",109764,6.422,183.4,9.87,0.532,24.15,110.9694,27.39,28.25,15.42,0,111.3,13.1,28.23,145.4
"2010-08-28 00:12:00",109765,6.387,174,6.641,0.499,24.15,110.9761,27.4,28.25,15.23,0,111.3,13.1,28.25,136.0
"2010-08-28 00:12:30",109766,5.574,166.2,4.994,0.268,24.03,110.9774,27.41,28.26,15.27,0,111.3,13.1,28.25,128.2
"2010-08-28 00:13:00",109767,5.094,161.9,10.26,0.644,24,110.9826,27.42,28.28,15.25,0,111.3,13.1,28.27,123.9
"2010-08-28 00:13:30",109768,5.025,168.6,3.77,0.407,23.95,110.9845,27.43,28.27,15.33,0,111.3,13.1,28.27,130.6
"2010-08-28 00:14:00",109769,4.958,179.7,3.333,0.256,23.77,110.9827,27.42,28.27,15.49,0,111.3,13.1,28.27,141.7
"2010-08-28 00:14:30",109770,6.437,180.2,6.905,0.996,23.82,110.9797,27.41,28.26,15.65,0,111.3,13.1,28.26,142.2
"2010-08-28 00:15:00",109771,6.595,169.7,3.328,0.727,23.85,110.9789,27.41,28.25,15.82,0,111.3,13.1,28.26,131.7
"2010-08-28 00:15:30",109772,6.488,170.9,6.366,0.487,23.9,110.9599,27.36,28.23,15.74,0,111.3,13.1,28.21,132.9
"2010-08-28 00:16:00",109773,6.079,162.3,1.338,0.201,23.95,110.9529,27.34,28.22,15.27,0,111.3,13.1,28.19,124.3
"2010-08-28 00:16:30",109774,6.19,160.4,0.946,0.115,23.92,110.9507,27.34,28.22,15.26,0,111.3,13.1,28.19,122.4
"2010-08-28 00:17:00",109775,6.249,161.2,0.62,0.083,23.91,110.9492,27.33,28.21,15.27,0,111.3,13.1,28.18,123.2
"2010-08-28 00:17:30",109776,6.218,162.1,0.974,0.073,23.94,110.9467,27.33,28.21,15.3,0,111.3,13.1,28.18,124.1
"2010-08-28 00:18:00",109777,6.091,164.2,0.617,0.098,24,110.9464,27.33,28.21,15.34,0,111.3,13.11,28.17,126.2
"2010-08-28 00:18:30",109778,6.654,161.9,2.449,0.307,23.82,110.9462,27.33,28.2,15.58,0,111.3,13.11,28.17,123.9
"2010-08-28 00:19:00",109779,6.006,156.4,2.013,0.235,23.58,110.931,27.29,28.19,16.26,0,111.3,13.11,28.13,118.4
"2010-08-28 00:19:30",109780,5.725,154.8,3.696,0.285,23.48,110.9116,27.24,28.15,16.41,0,111.3,13.11,28.08,116.8
"2010-08-28 00:20:00",109781,5.768,151,3.82,0.424,23.33,110.8878,27.18,28.12,16.5,0,111.3,13.11,28.02,113.0
"2010-08-28 00:20:30",109782,7.455,160.5,1.948,0.516,23.44,110.878,27.15,28.1,16.43,0,111.3,13.11,28.00,122.5
"2010-08-28 00:21:00",109783,7.481,160.6,1.771,0.273,23.49,110.8664,27.12,28.05,16.32,0,111.3,13.11,27.97,122.6
"2010-08-28 00:21:30",109784,7.379,166.8,2.061,0.266,23.68,110.853,27.09,28.03,16.43,0,111.3,13.11,27.93,128.8
"2010-08-28 00:22:00",109785,7.64,164.6,1.321,0.338,23.62,110.8457,27.07,28.01,16.36,0,111.3,13.11,27.91,126.6
"2010-08-28 00:22:30",109786,7.913,164.2,0.952,0.13,23.68,110.8454,27.07,27.99,16.28,0,111.3,13.1,27.91,126.2
"2010-08-28 00:23:00",109787,7.592,164.5,1.143,0.207,23.66,110.8446,27.07,27.97,16.23,0,111.3,13.1,27.91,126.5
"2010-08-28 00:23:30",109788,8.1,163.5,1.515,0.247,23.69,110.8336,27.04,27.96,16.17,0,111.3,13.1,27.88,125.5
"2010-08-28 00:24:00",109789,7.965,166.3,1.908,0.206,23.72,110.8314,27.03,27.94,16.29,0,111.3,13.1,27.88,128.3
"2010-08-28 00:24:30",109790,7.745,165.6,1.168,0.177,23.61,110.8387,27.05,27.94,16.49,0,111.3,13.1,27.90,127.6
"2010-08-28 00:25:00",109791,7.407,165.4,1.254,0.226,23.51,110.8418,27.06,27.95,16.42,0,111.3,13.1,27.90,127.4
"2010-08-28 00:25:30",109792,6.894,168,1.308,0.106,23.53,110.8443,27.06,27.94,16.56,0,111.3,13.1,27.91,130.0
"2010-08-28 00:26:00",109793,7.114,167.6,0.825,0.191,23.5,110.8454,27.07,27.94,16.49,0,111.3,13.1,27.91,129.6
"2010-08-28 00:26:30",109794,7.279,166,0.996,0.11,23.49,110.8454,27.07,27.94,16.13,0,111.3,13.1,27.91,128.0
"2010-08-28 00:27:00",109795,7.062,165.5,0.999,0.149,23.47,110.8454,27.07,27.94,16.08,0,111.3,13.1,27.91,127.5
"2010-08-28 00:27:30",109796,6.889,165,1.087,0.222,23.5,110.8454,27.07,27.97,16.29,0,111.3,13.1,27.91,127.0
"2010-08-28 00:28:00",109797,6.734,164.1,1.402,0.155,23.58,110.8457,27.07,27.95,16.2,0,111.3,13.1,27.91,126.1
"2010-08-28 00:28:30",109798,6.783,163.7,0.79,0.317,23.67,110.849,27.08,27.95,15.91,0,111.3,13.11,27.92,125.7
"2010-08-28 00:29:00",109799,7.023,165,1.658,0.184,23.82,110.8538,27.09,27.97,15.82,0,111.3,13.11,27.94,127.0
"2010-08-28 00:29:30",109800,6.804,165.1,1.178,0.171,23.89,110.858,27.1,27.98,15.98,0,111.3,13.11,27.95,127.1
"2010-08-28 00:30:00",109801,6.595,164.1,1.471,0.214,23.91,110.862,27.11,27.97,15.78,0,111.3,13.11,27.96,126.1
"2010-08-28 00:30:30",109802,6.351,163.5,1.317,0.153,23.88,110.8639,27.12,27.97,15.67,0,111.3,13.11,27.96,125.5
"2010-08-28 00:31:00",109803,6.704,162.6,1.04,0.136,23.99,110.8687,27.13,27.99,15.51,0,111.3,13.11,27.97,124.6
"2010-08-28 00:31:30",109804,6.558,161.8,2.253,0.141,23.99,110.8766,27.15,27.99,15.48,0,111.3,13.11,27.99,123.8
"2010-08-28 00:32:00",109805,6.71,161.6,2.054,0.192,23.99,110.878,27.15,28.01,15.42,0,111.3,13.11,28.00,123.6
"2010-08-28 00:32:30",109806,6.752,165.5,1.903,0.234,24.08,110.8791,27.15,28.02,15.42,0,111.3,13.11,28.00,127.5
"2010-08-28 00:33:00",109807,6.943,172.6,8.7,0.268,24.22,110.8802,27.16,28.02,15.4,0,111.3,13.11,28.00,134.6
"2010-08-28 00:33:30",109808,6.48,187.6,9.58,0.476,24.45,110.9094,27.23,28.06,15.25,0,111.3,13.11,28.08,149.6
"2010-08-28 00:34:00",109809,5.719,187.2,6.481,0.499,24.41,110.9442,27.32,28.11,15.14,0,111.3,13.11,28.17,149.2
"2010-08-28 00:34:30",109810,5.11,191.1,10.07,0.394,24.12,110.9765,27.4,28.17,15.12,0,111.3,13.11,28.25,153.1
"2010-08-28 00:35:00",109811,5.471,176.1,4.215,0.382,24.03,110.9852,27.43,28.2,15.13,0,111.3,13.11,28.27,138.1
"2010-08-28 00:35:30",109812,5.249,184.7,4.275,0.335,24.22,110.9885,27.44,28.24,15.05,0,111.3,13.11,28.28,146.7
"2010-08-28 00:36:00",109813,4.41,190.1,3.62,0.317,24.19,111.0118,27.5,28.26,14.94,0,111.3,13.11,28.34,152.1
"2010-08-28 00:36:30",109814,4.697,194.8,2.27,0.355,24.32,111.016,27.51,28.29,14.82,0,111.3,13.11,28.35,156.8
"2010-08-28 00:37:00",109815,5.513,198.5,3.996,0.261,24.45,111.0395,27.57,28.34,14.73,0,111.3,13.11,28.41,160.5
"2010-08-28 00:37:30",109816,4.921,206.1,6.808,0.234,24.44,111.0623,27.63,28.39,14.7,0,111.3,13.11,28.47,168.1
"2010-08-28 00:38:00",109817,4.733,208.4,3.803,0.288,24.4,111.0815,27.67,28.43,14.65,0,111.3,13.11,28.52,170.4
"2010-08-28 00:38:30",109818,4.734,205.8,7.779,0.206,24.4,111.0976,27.72,28.48,14.6,0,111.3,13.11,28.56,167.8
"2010-08-28 00:39:00",109819,4.609,204.8,4.91,0.28,24.42,111.1177,27.77,28.53,14.58,0,111.3,13.11,28.62,166.8
"2010-08-28 00:39:30",109820,4.302,204.6,5.229,0.198,24.38,111.1229,27.78,28.56,14.55,0,111.3,13.1,28.63,166.6
"2010-08-28 00:40:00",109821,4.137,200.6,3.203,0.24,24.4,111.1404,27.83,28.6,14.55,0,111.3,13.1,28.67,162.6
"2010-08-28 00:40:30",109822,4.181,210.9,4.774,0.445,24.36,111.1447,27.84,28.62,14.52,0,111.3,13.1,28.69,172.9
"2010-08-28 00:41:00",109823,4.367,213.8,3.088,0.315,24.37,111.1508,27.85,28.63,14.47,0,111.3,13.1,28.70,175.8
"2010-08-28 00:41:30",109824,3.803,208.9,9.38,0.217,24.33,111.1551,27.86,28.65,14.47,0,111.3,13.1,28.71,170.9
"2010-08-28 00:42:00",109825,3.788,196.9,4.078,0.236,24.3,111.1531,27.86,28.66,14.47,0,111.3,13.1,28.71,158.9
"2010-08-28 00:42:30",109826,3.385,194.1,5.687,0.311,24.26,111.149,27.85,28.67,14.5,0,111.3,13.1,28.70,156.1
"2010-08-28 00:43:00",109827,3.795,193.9,3.13,0.175,24.21,111.1328,27.81,28.66,14.54,0,111.3,13.1,28.66,155.9
"2010-08-28 00:43:30",109828,3.957,191.6,3.566,0.477,24.09,111.1194,27.77,28.63,14.6,0,111.3,13.1,28.62,153.6
"2010-08-28 00:44:00",109829,4.76,192.9,1.995,0.073,24.09,111.0953,27.71,28.61,14.69,0,111.3,13.1,28.56,154.9
"2010-08-28 00:44:30",109830,5.008,190,2.973,0.163,24.1,111.078,27.67,28.58,14.86,0,111.3,13.1,28.51,152.0
"2010-08-28 00:45:00",109831,5.194,186.3,3.039,0.263,24.13,111.0584,27.62,28.55,15.11,0,111.3,13.11,28.46,148.3
"2010-08-28 00:45:30",109832,4.479,196.7,2.582,0.268,24.16,111.048,27.59,28.52,14.94,0,111.3,13.11,28.44,158.7
"2010-08-28 00:46:00",109833,4.384,189.8,5.223,0.267,24.25,111.0365,27.56,28.5,14.87,0,111.3,13.11,28.41,151.8
"2010-08-28 00:46:30",109834,4.782,188.6,2.971,0.28,24.29,111.0374,27.56,28.49,14.87,0,111.3,13.11,28.41,150.6
"2010-08-28 00:47:00",109835,5.144,190.5,3.587,0.693,24.23,111.0409,27.57,28.46,15.04,0,111.3,13.11,28.42,152.5
"2010-08-28 00:47:30",109836,5.656,192.8,5.088,0.275,24.27,111.0396,27.57,28.47,15.05,0,111.3,13.11,28.41,154.8
"2010-08-28 00:48:00",109837,5.789,189.1,2.946,0.128,24.18,111.0371,27.56,28.46,15.23,0,111.3,13.11,28.41,151.1
"2010-08-28 00:48:30",109838,5.874,182,1.341,0.256,24.15,111.0362,27.56,28.44,15.37,0,111.3,13.11,28.41,144.0
"2010-08-28 00:49:00",109839,6.63,183.1,2.132,0.258,24.13,111.0221,27.52,28.41,15.47,0,111.3,13.11,28.37,145.1
"2010-08-28 00:49:30",109840,6.437,181.2,2.193,0.261,24.11,111.0043,27.48,28.38,15.45,0,111.3,13.11,28.32,143.2
"2010-08-28 00:50:00",109841,6.908,182.5,2.048,0.32,24.14,111.0075,27.48,28.36,15.26,0,111.3,13.11,28.33,144.5
"2010-08-28 00:50:30",109842,6.645,182.7,2.354,0.203,24.13,111.0069,27.48,28.36,15.23,0,111.3,13.11,28.33,144.7
"2010-08-28 00:51:00",109843,6.84,185.1,1.518,0.2,24.21,111.002,27.47,28.33,15.28,0,111.3,13.11,28.32,147.1
"2010-08-28 00:51:30",109844,6.876,185.4,3.447,0.322,24.23,110.9932,27.45,28.32,15.26,0,111.3,13.11,28.30,147.4
"2010-08-28 00:52:00",109845,6.618,189.4,1.546,0.168,24.26,110.991,27.44,28.31,15.26,0,111.3,13.11,28.29,151.4
"2010-08-28 00:52:30",109846,6.423,187.3,2.689,0.25,24.26,110.9902,27.44,28.32,15.26,0,111.3,13.11,28.29,149.3
"2010-08-28 00:53:00",109847,6.618,180,3.163,0.271,24.21,110.9994,27.46,28.31,15.21,0,111.3,13.11,28.31,142.0
"2010-08-28 00:53:30",109848,5.887,183.8,3.08,0.248,24.22,111.007,27.48,28.32,15.23,0,111.3,13.11,28.33,145.8
"2010-08-28 00:54:00",109849,5.708,181.7,2.846,0.226,24.19,111.0082,27.49,28.33,15.19,0,111.3,13.11,28.33,143.7
"2010-08-28 00:54:30",109850,4.93,189,3.091,0.533,24.27,111.0082,27.49,28.33,15.13,0,111.3,13.11,28.33,151.0
"2010-08-28 00:55:00",109851,4.383,198.3,4.777,0.256,24.31,111.0096,27.49,28.33,15.02,0,111.3,13.11,28.34,160.3
"2010-08-28 00:55:30",109852,5.003,192.2,3.355,0.449,24.29,111.0169,27.51,28.36,15.07,0,111.3,13.11,28.36,154.2
"2010-08-28 00:56:00",109853,5.285,190.6,4.562,0.222,24.26,111.0242,27.53,28.35,15.12,0,111.3,13.11,28.38,152.6
"2010-08-28 00:56:30",109854,5.274,195,1.969,0.272,24.26,111.0335,27.55,28.37,15.1,0,111.2,13.11,28.40,157.0
"2010-08-28 00:57:00",109855,5.54,196.8,1.62,0.105,24.28,111.0386,27.56,28.37,15.09,0,111.2,13.11,28.41,158.8
"2010-08-28 00:57:30",109856,5.654,196.5,1.77,0.193,24.3,111.0408,27.57,28.38,15.06,0,111.3,13.11,28.42,158.5
"2010-08-28 00:58:00",109857,5.191,198.9,1.548,0.136,24.33,111.0422,27.57,28.39,15.02,0,111.3,13.11,28.42,160.9
"2010-08-28 00:58:30",109858,5.229,200.1,3.25,0.108,24.35,111.044,27.58,28.4,14.98,0,111.2,13.11,28.43,162.1
"2010-08-28 00:59:00",109859,5.023,205,1.166,0.345,24.3,111.0428,27.58,28.42,14.93,0,111.3,13.11,28.42,167.0
"2010-08-28 00:59:30",109860,4.747,205.8,1.77,0.254,24.32,111.0449,27.58,28.43,14.91,0,111.2,13.11,28.43,167.8
"2010-08-28 01:00:00",109861,4.875,204.8,2.143,0.116,24.25,111.048,27.59,28.43,14.86,0,111.2,13.11,28.44,166.8
"2010-08-28 01:00:30",109862,5.112,208.4,2.408,0.212,24.23,111.055,27.61,28.44,14.79,0,111.2,13.11,28.45,170.4
"2010-08-28 01:01:00",109863,5.149,206,2.427,0.075,24.26,111.0521,27.6,28.44,14.74,0,111.2,13.11,28.45,168.0
"2010-08-28 01:01:30",109864,5.074,204.1,1.938,0.117,24.23,111.0499,27.59,28.45,14.71,0,111.2,13.11,28.44,166.1
"2010-08-28 01:02:00",109865,5.27,201.9,3.44,0.144,24.24,111.0493,27.59,28.44,14.7,0,111.2,13.11,28.44,163.9
"2010-08-28 01:02:30",109866,5.542,199.6,1.421,0.065,24.17,111.0484,27.59,28.44,14.57,0,111.2,13.11,28.44,161.6
"2010-08-28 01:03:00",109867,5.474,203.3,1.317,0.037,24.16,111.0416,27.57,28.43,14.59,0,111.2,13.12,28.42,165.3
"2010-08-28 01:03:30",109868,5.467,204.2,0.772,0.047,24.17,111.0258,27.53,28.41,14.57,0,111.2,13.12,28.38,166.2
"2010-08-28 01:04:00",109869,5.469,202.5,1.376,0.078,24.19,111.0225,27.52,28.4,14.57,0,111.2,13.12,28.37,164.5
"2010-08-28 01:04:30",109870,5.52,201.6,1.302,0.063,24.19,111.0168,27.51,28.39,14.6,0,111.2,13.12,28.36,163.6
"2010-08-28 01:05:00",109871,5.663,201.5,1.268,0.06,24.18,111.0169,27.51,28.37,14.68,0,111.2,13.12,28.36,163.5
"2010-08-28 01:05:30",109872,5.661,207.2,1.784,0.076,24.16,111.0172,27.51,28.37,14.76,0,111.2,13.12,28.36,169.2
"2010-08-28 01:06:00",109873,5.633,211.1,2.042,0.143,24.04,111.0043,27.48,28.35,15.02,0,111.2,13.12,28.32,173.1
"2010-08-28 01:06:30",109874,6.113,230.6,9.2,0.832,23.84,110.9847,27.43,28.33,15.52,0,111.2,13.12,28.27,192.6
"2010-08-28 01:07:00",109875,5.487,262,6.549,1,23.73,110.9527,27.34,28.28,16.47,0,111.2,13.12,28.19,224.0
"2010-08-28 01:07:30",109876,3.931,242,14.81,0.637,23.79,110.9173,27.25,28.23,16.4,0,111.2,13.12,28.10,204.0
"2010-08-28 01:08:00",109877,3.894,233,15.17,0.7,23.81,110.8926,27.19,28.17,16.04,0,111.2,13.12,28.04,195.0
"2010-08-28 01:08:30",109878,4.746,267.7,5.063,0.501,23.81,110.8715,27.13,28.13,16.47,0,111.3,13.12,27.98,229.7
"2010-08-28 01:09:00",109879,5.555,269.8,6.073,0.568,23.85,110.8499,27.08,28.06,16.45,0,111.3,13.12,27.93,231.8
"2010-08-28 01:09:30",109880,6.289,258.8,9.41,0.515,23.94,110.8491,27.08,28.04,16.33,0,111.3,13.12,27.92,220.8
"2010-08-28 01:10:00",109881,6.803,249.9,5.685,0.543,23.93,110.8491,27.08,28.01,16.28,0,111.2,13.12,27.92,211.9
"2010-08-28 01:10:30",109882,6.811,267.4,6.908,0.634,23.99,110.8479,27.07,28,16.29,0,111.2,13.12,27.92,229.4
"2010-08-28 01:11:00",109883,6.909,271,3.9,0.361,24,110.8474,27.07,28,16.26,0,111.3,13.12,27.92,233.0
"2010-08-28 01:11:30",109884,6.835,265.5,4.78,0.746,23.98,110.8482,27.07,27.98,16.36,0,111.2,13.12,27.92,227.5
"2010-08-28 01:12:00",109885,5.926,277.4,6.633,0.531,23.95,110.8488,27.08,27.97,16.46,0,111.2,13.12,27.92,239.4
"2010-08-28 01:12:30",109886,5.426,283.8,9.48,0.86,24.03,110.8491,27.08,27.98,16.07,0,111.2,13.12,27.92,245.8
"2010-08-28 01:13:00",109887,4.538,267.5,19.33,0.798,23.94,110.8491,27.08,27.98,16.17,0,111.2,13.12,27.92,229.5
"2010-08-28 01:13:30",109888,5.296,235.5,5.551,0.754,24.05,110.8491,27.08,27.98,15.99,0,111.2,13.11,27.92,197.5
"2010-08-28 01:14:00",109889,4.527,253.7,8.08,0.515,24.05,110.8527,27.09,27.98,15.94,0,111.2,13.11,27.93,215.7
"2010-08-28 01:14:30",109890,5.204,274.3,3.439,0.446,24.29,110.8726,27.14,28,15.54,0,111.2,13.11,27.98,236.3
"2010-08-28 01:15:00",109891,4.378,277.1,3.203,0.362,24.26,110.8985,27.2,28.02,15.36,0,111.2,13.11,28.05,239.1
"2010-08-28 01:15:30",109892,3.835,275.5,6.832,0.492,24.04,110.9162,27.25,28.06,15.74,0,111.2,13.11,28.10,237.5
"2010-08-28 01:16:00",109893,4.62,269.7,10.22,0.6,23.98,110.9136,27.24,28.06,15.92,0,111.2,13.11,28.09,231.7
"2010-08-28 01:16:30",109894,4.743,293,3.285,0.671,24.06,110.901,27.21,28.07,16.03,0,111.2,13.11,28.06,255.0
"2010-08-28 01:17:00",109895,4.682,284.6,4.175,0.978,24.07,110.8993,27.21,28.06,15.88,0,111.2,13.11,28.05,246.6
"2010-08-28 01:17:30",109896,5.38,281.7,4.607,0.412,24.05,110.899,27.21,28.07,15.99,0,111.2,13.11,28.05,243.7
"2010-08-28 01:18:00",109897,5.159,273.4,10.4,0.498,24.06,110.8892,27.18,28.07,16.38,0,111.2,13.11,28.03,235.4
"2010-08-28 01:18:30",109898,5.685,269.5,4.361,0.412,24.05,110.8847,27.17,28.07,16.02,0,111.2,13.12,28.02,231.5
"2010-08-28 01:19:00",109899,5.644,256.8,5.133,0.275,23.92,110.8827,27.16,28.08,16.11,0,111.3,13.12,28.01,218.8
"2010-08-28 01:19:30",109900,5.579,250,6.918,0.467,23.92,110.8827,27.16,28.07,16.16,0,111.3,13.12,28.01,212.0
"2010-08-28 01:20:00",109901,5.742,254.3,9.01,0.608,23.98,110.8738,27.14,28.06,16.14,0,111.3,13.13,27.99,216.3
"2010-08-28 01:20:30",109902,6.712,262.4,4.176,0.606,24.2,110.8721,27.14,28.04,15.89,0,111.3,13.13,27.98,224.4
"2010-08-28 01:21:00",109903,6.717,259.9,3.052,0.597,24.12,110.8827,27.16,28.06,16.07,0,111.3,13.13,28.01,221.9
"2010-08-28 01:21:30",109904,6.527,256.5,4.851,0.552,24.09,110.8827,27.16,28.05,16.18,0,111.2,13.13,28.01,218.5
"2010-08-28 01:22:00",109905,6.766,260.7,3.306,0.288,24.03,110.8827,27.16,28.05,16.19,0,111.2,13.13,28.01,222.7
"2010-08-28 01:22:30",109906,7.085,259.4,5.058,0.657,24.05,110.8755,27.14,28.07,16.51,0,111.2,13.13,27.99,221.4
"2010-08-28 01:23:00",109907,7.508,255.4,4.042,0.539,24,110.8544,27.09,28.03,16.66,0,111.2,13.13,27.94,217.4
"2010-08-28 01:23:30",109908,6.931,250.3,1.821,0.714,23.94,110.8491,27.08,28.03,16.69,0,111.2,13.13,27.92,212.3
"2010-08-28 01:24:00",109909,7.714,248.2,1.919,0.249,24.02,110.8491,27.08,28.01,16.75,0,111.3,13.13,27.92,210.2
"2010-08-28 01:24:30",109910,7.931,246.7,2.887,0.546,23.95,110.8432,27.06,28,16.71,0,111.2,13.13,27.91,208.7
"2010-08-28 01:25:00",109911,8.29,244.8,2.134,0.153,23.91,110.8296,27.03,27.97,16.73,0,111.2,13.13,27.87,206.8
"2010-08-28 01:25:30",109912,8.13,244.3,2.957,0.278,23.92,110.8177,27,27.97,16.77,0,111.2,13.13,27.84,206.3
"2010-08-28 01:26:00",109913,7.844,246.7,1.68,0.179,23.87,110.8195,27,27.95,16.93,0,111.2,13.13,27.85,208.7
"2010-08-28 01:26:30",109914,8.61,252.1,2.504,0.478,23.84,110.802,26.96,27.92,16.89,0,111.2,13.13,27.80,214.1
"2010-08-28 01:27:00",109915,8.53,255.9,1.541,0.451,23.84,110.7873,26.92,27.9,16.87,0,111.2,13.13,27.76,217.9
"2010-08-28 01:27:30",109916,8.85,253,2.12,0.373,23.9,110.7879,26.92,27.88,16.84,0,111.2,13.13,27.77,215.0
"2010-08-28 01:28:00",109917,8.07,251.7,1.034,0.195,23.88,110.7792,26.9,27.87,16.83,0,111.2,13.13,27.74,213.7
"2010-08-28 01:28:30",109918,8.26,250.2,1.893,0.353,23.92,110.7641,26.86,27.85,16.8,0,111.2,13.13,27.70,212.2
"2010-08-28 01:29:00",109919,7.533,249.9,2.112,0.186,23.9,110.7697,26.87,27.82,16.83,0,111.2,13.13,27.72,211.9
"2010-08-28 01:29:30",109920,7.397,255.5,5.785,0.83,23.95,110.7653,26.86,27.81,16.79,0,111.2,13.13,27.71,217.5
"2010-08-28 01:30:00",109921,5.483,263,15.43,1.222,23.91,110.7684,26.87,27.81,16.73,0,111.2,13.13,27.72,225.0
"2010-08-28 01:30:30",109922,5.34,261.6,5.951,0.922,23.88,110.7729,26.88,27.8,16.71,0,111.2,13.13,27.73,223.6
"2010-08-28 01:31:00",109923,7.199,264.8,4.2,0.501,23.93,110.7773,26.89,27.79,16.74,0,111.2,13.12,27.74,226.8
"2010-08-28 01:31:30",109924,6.975,263.4,3.346,0.616,23.91,110.7786,26.9,27.8,16.7,0,111.2,13.13,27.74,225.4
"2010-08-28 01:32:00",109925,6.342,264,4.215,0.363,23.92,110.7793,26.9,27.79,16.79,0,111.2,13.12,27.74,226.0
"2010-08-28 01:32:30",109926,5.403,273.2,8.81,0.754,23.93,110.7783,26.89,27.79,16.78,0,111.2,13.12,27.74,235.2
"2010-08-28 01:33:00",109927,4.52,271.3,5.008,0.364,23.84,110.7801,26.9,27.8,16.81,0,111.2,13.12,27.75,233.3
"2010-08-28 01:33:30",109928,5.238,277.2,6.041,0.316,23.95,110.7768,26.89,27.79,16.74,0,111.2,13.12,27.74,239.2
"2010-08-28 01:34:00",109929,4.496,271.2,5.201,0.227,24.02,110.7872,26.92,27.79,16.48,0,111.2,13.12,27.76,233.2
"2010-08-28 01:34:30",109930,3.519,286.2,5.094,0.687,23.94,110.808,26.97,27.81,16.71,0,111.2,13.12,27.82,248.2
"2010-08-28 01:35:00",109931,2.009,271.9,17.15,0.275,23.97,110.8094,26.97,27.8,16.57,0,111.2,13.12,27.82,233.9
"2010-08-28 01:35:30",109932,1.945,267.5,9.7,0.583,23.98,110.8097,26.98,27.83,16.46,0,111.2,13.12,27.82,229.5
"2010-08-28 01:36:00",109933,3.316,274.1,4.41,0.252,24.02,110.8108,26.98,27.82,16.37,0,111.2,13.13,27.82,236.1
"2010-08-28 01:36:30",109934,3.35,283.6,2.369,0.263,24.06,110.8234,27.01,27.83,16.29,0,111.2,13.13,27.86,245.6
"2010-08-28 01:37:00",109935,2.965,285.5,7.269,0.253,24.11,110.8426,27.06,27.86,16.14,0,111.2,13.13,27.91,247.5
"2010-08-28 01:37:30",109936,3.388,288.5,4.338,0.116,24.04,110.8463,27.07,27.89,16.26,0,111.2,13.13,27.92,250.5
"2010-08-28 01:38:00",109937,3.131,279.6,7.882,0.236,24.06,110.8519,27.08,27.9,16.2,0,111.2,13.13,27.93,241.6
"2010-08-28 01:38:30",109938,3.091,273.5,5.964,0.257,24.03,110.8583,27.1,27.92,16.18,0,111.2,13.13,27.95,235.5
"2010-08-28 01:39:00",109939,3.107,290,8.71,0.374,24.02,110.8596,27.1,27.91,16.2,0,111.2,13.13,27.95,252.0
"2010-08-28 01:39:30",109940,3.289,295.3,5.862,0.32,24.03,110.8608,27.11,27.94,16.21,0,111.2,13.13,27.95,257.3
"2010-08-28 01:40:00",109941,3.291,291.9,3.403,0.239,23.98,110.8593,27.1,27.92,16.31,0,111.2,13.13,27.95,253.9
"2010-08-28 01:40:30",109942,3.404,294.2,3.819,0.144,23.96,110.854,27.09,27.93,16.38,0,111.2,13.13,27.94,256.2
"2010-08-28 01:41:00",109943,3.074,293.5,1.642,0.219,24.02,110.8517,27.08,27.94,16.32,0,111.2,13.13,27.93,255.5
"2010-08-28 01:41:30",109944,3.337,287.4,2.532,0.15,24.01,110.8529,27.09,27.93,16.26,0,111.2,13.13,27.93,249.4
"2010-08-28 01:42:00",109945,3.113,279.5,4.552,0.162,24.02,110.8548,27.09,27.94,16.23,0,111.2,13.13,27.94,241.5
"2010-08-28 01:42:30",109946,2.854,266.1,3.633,0.154,24.06,110.8597,27.1,27.94,16.19,0,111.2,13.13,27.95,228.1
"2010-08-28 01:43:00",109947,2.206,256.4,8.94,0.273,24.08,110.865,27.12,27.95,16.1,0,111.2,13.13,27.96,218.4
"2010-08-28 01:43:30",109948,2.096,257.8,4.29,0.217,24.02,110.8751,27.14,27.96,16.15,0,111.2,13.13,27.99,219.8
"2010-08-28 01:44:00",109949,2.461,265,2.581,0.163,23.97,110.8681,27.13,27.96,16.23,0,111.2,13.13,27.97,227.0
"2010-08-28 01:44:30",109950,2.276,267.9,6.121,0.161,23.95,110.8614,27.11,27.95,16.22,0,111.2,13.13,27.96,229.9
"2010-08-28 01:45:00",109951,2.242,271.7,2.885,0.144,23.95,110.8603,27.11,27.95,16.26,0,111.2,13.13,27.95,233.7
"2010-08-28 01:45:30",109952,2.645,255.8,11.08,0.265,24.01,110.8566,27.1,27.94,16.26,0,111.2,13.13,27.94,217.8
"2010-08-28 01:46:00",109953,2.526,250.2,6.227,0.273,24.02,110.8533,27.09,27.95,16.24,0,111.2,13.13,27.93,212.2
"2010-08-28 01:46:30",109954,2.394,243.2,4.496,0.249,24.19,110.8623,27.11,27.96,15.86,0,111.2,13.13,27.96,205.2
"2010-08-28 01:47:00",109955,2.979,241.9,7.324,0.312,24.22,110.8864,27.17,27.97,15.63,0,111.2,13.13,28.02,203.9
"2010-08-28 01:47:30",109956,3.464,236.6,5.903,0.421,24.29,110.9061,27.22,28.02,15.2,0,111.2,13.13,28.07,198.6
"2010-08-28 01:48:00",109957,3.163,229.1,3.439,0.168,24.08,110.9201,27.26,28.06,15.68,0,111.2,13.13,28.11,191.1